Flag for Norfolk Island Weather past 2 weeks in Kingston, Norfolk Island

Now
66 °F

Sprinkles. Partly sunny.


Feels Like: 66 °F
Forecast: 59 / 65 °F
Wind: 16 mph from Northeast

Location: Norfolk Island Airport

Current Time: Aug 2, 2014 at 5:29:15 PM

Latest Report: Aug 2, 2014 at 4:30 PM


Visibility: 5 mi

Pressure: 30.12 "Hg

Humidity: 88%

Dew point: 63 °F

Location of KingstonLocation

Historic Weather in Kingston — Graph

°F

Kingston temperature yesterday

Maximum temperature yesterday: 66 °F (at 10:30 AM)
Minimum temperature yesterday: 61 °F (at 2:30 AM)
Average temperature yesterday: 63 °F

Past Weeks' High & Low Weather Summary

 TemperatureHumidityPressure
High66 °F (Jul 29, 12:30 PM)100% (Jul 29, 9:30 PM)30.42 "Hg (Jul 29, 9:30 PM)
Low54 °F (Jul 23, 7:30 PM)45% (Jul 20, 5:30 PM)29.47 "Hg (Jul 19, 3:30 AM)
Average60 °F71%30.08 "Hg
* Reported Jul 18 3:30 PM — Aug 2 4:00 PM, Kingston, Weather by CustomWeather, © 2014

Note: Actual official high and low records may vary slightly from our data, if they occured in-between our weather recording intervals... More about our weather records

Advertising

Kingston weather history for previous 24 hours

 ConditionsComfort  
Time TempWeatherWind HumidityBarometerVisibility
4:00 PM
Aug 2
66 °FSprinkles. Partly sunny.14 mph88%30.12 "HgN/A
3:30 PM66 °FMostly cloudy.17 mph88%30.09 "HgN/A
3:00 PM66 °FScattered showers. Partly sunny.16 mph88%30.09 "HgN/A
2:30 PM66 °FFog.18 mph94%30.09 "Hg3 mi
2:00 PM66 °FFog.16 mph94%30.09 "Hg3 mi
1:30 PM66 °FDrizzle. Fog.15 mph94%30.12 "Hg1 mi
1:00 PM66 °FDrizzle. Fog.15 mph94%30.15 "Hg1 mi
12:30 PM66 °FPartly sunny.16 mph94%30.15 "HgN/A
11:30 AM66 °FPassing clouds.17 mph88%30.18 "HgN/A
11:00 AM66 °FScattered clouds.16 mph88%30.18 "HgN/A
10:30 AM66 °FPartly sunny.16 mph88%30.21 "HgN/A
10:00 AM66 °FPartly sunny.15 mph88%30.21 "HgN/A
9:30 AM66 °FPartly sunny.16 mph94%30.21 "HgN/A
9:00 AM66 °FPartly sunny.15 mph88%30.21 "HgN/A
8:30 AM64 °FScattered clouds.15 mph94%30.21 "HgN/A
8:00 AM64 °FScattered clouds.14 mph94%30.21 "HgN/A
7:30 AM64 °FPassing clouds.13 mph88%30.21 "HgN/A
7:00 AM64 °FSunny.13 mph88%30.18 "Hg6 mi
6:30 AM64 °FClear.14 mph88%30.18 "Hg6 mi
6:00 AM64 °FClear.14 mph88%30.18 "HgN/A
5:30 AM64 °FClear.15 mph88%30.18 "HgN/A
5:00 AM64 °FClear.16 mph88%30.18 "HgN/A
4:30 AM64 °FClear.16 mph88%30.18 "HgN/A
4:00 AM64 °FClear.18 mph88%30.18 "HgN/A
3:30 AM64 °FClear.18 mph88%30.18 "HgN/A
3:00 AM64 °FPassing clouds.16 mph88%30.18 "Hg6 mi
2:30 AM64 °FPassing clouds.17 mph94%30.21 "Hg5 mi
2:00 AM64 °FPassing clouds.16 mph94%30.21 "Hg5 mi
1:33 AM64 °FPassing clouds.17 mph94%30.21 "Hg5 mi
1:00 AM64 °FPartly cloudy.17 mph94%30.21 "Hg5 mi
12:30 AM64 °FPartly cloudy.17 mph94%30.21 "Hg5 mi
11:30 PM
Aug 1
64 °FPassing clouds.16 mph94%30.21 "Hg5 mi
11:00 PM64 °FLow clouds.14 mph94%30.21 "Hg4 mi
10:30 PM64 °FFog.15 mph100%30.21 "Hg3 mi
10:00 PM64 °FMostly cloudy.14 mph100%30.21 "Hg4 mi
9:30 PM64 °FPartly cloudy.15 mph94%30.21 "Hg6 mi
9:18 PM64 °FMostly cloudy.15 mph94%30.21 "Hg6 mi
8:30 PM64 °FPassing clouds.13 mph94%30.21 "Hg6 mi
7:30 PM64 °FClear.14 mph94%30.21 "Hg10 mi
7:00 PM64 °FClear.13 mph94%30.21 "Hg10 mi
6:30 PM64 °FPassing clouds.13 mph88%30.21 "HgN/A
6:00 PM64 °FPassing clouds.13 mph94%30.18 "HgN/A
5:30 PM64 °FPassing clouds.13 mph94%30.18 "HgN/A
5:00 PM64 °FPartly sunny.13 mph88%30.18 "HgN/A
Weather by CustomWeather, © 2014

See weather overviewHow to use our weather pages